This demonstration page uses our WeatherBlox Daily Observations layout. Learn more.

Left ArrowRight Arrow

31.84235, -102.49876

Hourly Observations for August 10, 2022

Temp ( °F °C ) Dew Point ( °F °C ) Humidity (%) Winds ( mph kmh ) Pressure ( in mb ) Visibility ( mi km ) Precip ( " mm )
12:53 am 00:53 Clear 82 27.8 61 16.1 49 49 ESE 12 19 29.97 1015 10 16 0.00 0.00
1:53 am 01:53 Clear 81 27.2 61 16.1 51 51 SE 12 19 29.97 1015 10 16 0.00 0.00
2:53 am 02:53 Partly Cloudy with Light Rain 79 26.1 64 17.8 60 60 SSE 6 9 29.98 1015 10 16 0.01 0.13
3:53 am 03:53 Clear 80 26.7 61 16.1 52 52 SE 7 11 29.97 1015 10 16 0.01 0.13
4:53 am 04:53 Clear 80 26.7 60 15.6 51 51 SSE 5 7 29.98 1015 10 16 0.00 0.00
5:53 am 05:53 Clear 80 26.7 59 15 49 49 S 6 9 29.97 1015 10 16 0.00 0.00
6:53 am 06:53 Clear 81 27.2 58 14.4 45 45 S 10 17 29.99 1016 10 16 0.00 0.00
7:53 am 07:53 Sunny 80 26.7 59 15 49 49 S 8 13 30.02 1017 10 16 0.00 0.00
8:53 am 08:53 Sunny 80 26.7 61 16.1 52 52 S 9 15 30.04 1017 10 16 0.00 0.00
9:53 am 09:53 Sunny 81 27.2 62 16.7 53 53 Calm 30.07 1018 10 16 0.00 0.00
10:53 am 10:53 Mostly Sunny 83 28.3 62 16.7 49 49 VRB 3 6 30.08 1019 10 16 0.00 0.00
11:53 am 11:53 Sunny 87 30.6 62 16.7 43 43 NE 13 20 30.09 1019 10 16 0.00 0.00
12:53 pm 12:53 Sunny 89 31.7 63 17.2 42 42 NNE 16 26 30.07 1018 10 16 0.00 0.00
1:00 pm 13:00 Sunny with Nearby Thunderstorms 89 31.7 63 17.2 42 42 NNE 13 20 29.99 1016 10 16 0.00 0.00
1:29 pm 13:29 Sunny with Thunderstorms 91 32.8 62 16.7 38 38 NNE 12 19 29.97 1015 10 16 0.00 0.00
1:44 pm 13:44 Sunny with Nearby Thunderstorms 90 32.2 60 15.6 37 37 NE 10 17 29.98 1015 10 16 0.00 0.00
1:53 pm 13:53 Sunny 91 32.8 61 16.1 37 37 NNE 14 22 30.06 1018 10 16 0.00 0.00
2:53 pm 14:53 Mostly Sunny 91 32.8 60 15.6 36 36 E 13 20 30.05 1018 10 16 0.00 0.00
3:53 pm 15:53 Mostly Sunny 94 34.4 59 15 31 31 ENE 15 24 30.01 1016 10 16 0.00 0.00
4:53 pm 16:53 Partly Cloudy 91 32.8 59 15 34 34 NE 14 22 29.99 1016 10 16 0.00 0.00
5:53 pm 17:53 Sunny 92 33.3 60 15.6 35 35 ESE 12 19 29.99 1016 10 16 0.00 0.00
6:53 pm 18:53 Sunny 90 32.2 61 16.1 38 38 ENE 13 20 29.97 1015 10 16 0.00 0.00
7:53 pm 19:53 Sunny 87 30.6 60 15.6 40 40 E 14 22 29.98 1015 10 16 0.00 0.00
8:53 pm 20:53 Clear 86 30 58 14.4 39 39 E 13 20 30.01 1016 10 16 0.00 0.00
9:53 pm 21:53 Clear 84 28.9 58 14.4 41 41 ESE 8 13 30.03 1017 10 16 0.00 0.00
10:53 pm 22:53 Clear 83 28.3 60 15.6 46 46 ESE 9 15 30.04 1017 10 16 0.00 0.00
11:53 pm 23:53 Clear 81 27.2 61 16.1 51 51 SE 12 19 30.04 1017 10 16 0.00 0.00

Powered by AerisWeather